• In Denmark
  • List of Countries
  • For 7 days
  • Water Temperature
  • Satellite Maps
  • Weather Map
  • Weather Widgets
  • user-avatar
    Login

    Hourly Weather Wien

    Today, 20 June, Wednesday

    Time Temperature Precipitation Wind Pressure Humidity
    00:00 +19°C° 0 mm 2 mps 748 mmHg 84%
    01:00 +18°C° 0 mm 2 mps 748 mmHg 82%
    02:00 +18°C° 0 mm 2 mps 748 mmHg 83%
    03:00 +17°C° 0 mm 2 mps 748 mmHg 85%
    04:00 +17°C° 0 mm 2 mps 748 mmHg 87%
    05:00 +18°C° 0 mm 2 mps 748 mmHg 82%
    06:00 +20°C° 0 mm 2 mps 748 mmHg 78%
    07:00 +21°C° 0 mm 2 mps 748 mmHg 73%
    08:00 +24°C° 0 mm 2 mps 748 mmHg 68%
    09:00 +25°C° 0 mm 2 mps 748 mmHg 62%
    10:00 +27°C° 0 mm 2 mps 748 mmHg 57%
    11:00 +28°C° 0 mm 1 mps 748 mmHg 54%
    12:00 +29°C° 0 mm 1 mps 748 mmHg 52%
    13:00 +30°C° 0 mm 1 mps 747 mmHg 49%
    14:00 +30°C° 0 mm 1 mps 747 mmHg 49%
    15:00 +30°C° 0 mm 1 mps 747 mmHg 49%
    16:00 +30°C° 0 mm 1 mps 746 mmHg 49%
    17:00 +28°C° 0 mm 1 mps 746 mmHg 55%
    18:00 +27°C° 0 mm 1 mps 746 mmHg 61%
    19:00 +26°C° 0 mm 1 mps 746 mmHg 67%
    20:00 +25°C° 0 mm 1 mps 746 mmHg 70%
    21:00 +24°C° 0 mm 1 mps 746 mmHg 73%
    22:00 +22°C° 0 mm 1 mps 746 mmHg 76%
    23:00 +22°C° 0 mm 1 mps 745 mmHg 78%

    Tomorrow, 21 June, Thursday

    Time Temperature Precipitation Wind Pressure Humidity
    00:00 +21°C° 0 mm 1 mps 745 mmHg 81%
    01:00 +21°C° 0 mm 1 mps 745 mmHg 83%
    02:00 +21°C° 0 mm 1 mps 745 mmHg 85%
    03:00 +20°C° 0 mm 1 mps 745 mmHg 86%
    04:00 +20°C° 0 mm 1 mps 744 mmHg 88%
    05:00 +21°C° 0 mm 1 mps 744 mmHg 83%
    06:00 +23°C° 0 mm 1 mps 744 mmHg 78%
    07:00 +25°C° 0 mm 1 mps 744 mmHg 74%
    08:00 +26°C° 0 mm 1 mps 743 mmHg 68%
    09:00 +28°C° 0 mm 2 mps 743 mmHg 63%
    10:00 +29°C° 0 mm 2 mps 743 mmHg 57%
    11:00 +30°C° 0.1 mm 2 mps 742 mmHg 55%
    12:00 +31°C° 0.1 mm 2 mps 741 mmHg 53%
    13:00 +32°C° 0.1 mm 2 mps 741 mmHg 50%
    14:00 +32°C° 0.1 mm 2 mps 740 mmHg 51%
    15:00 +32°C° 0.1 mm 2 mps 740 mmHg 51%
    16:00 +32°C° 0.1 mm 2 mps 739 mmHg 51%
    17:00 +30°C° 0.2 mm 3 mps 739 mmHg 57%
    18:00 +29°C° 0.2 mm 3 mps 739 mmHg 62%
    19:00 +27°C° 0.2 mm 4 mps 739 mmHg 68%
    20:00 +25°C° 0.3 mm 5 mps 740 mmHg 71%
    21:00 +22°C° 0.3 mm 6 mps 741 mmHg 75%
    22:00 +20°C° 0.3 mm 7 mps 742 mmHg 78%
    23:00 +19°C° 0.1 mm 6 mps 742 mmHg 75%

    Day after tomorrow, 22 June, Friday

    Time Temperature Precipitation Wind Pressure Humidity
    00:00 +16°C° 0.1 mm 6 mps 743 mmHg 72%
    01:00 +14°C° 0.1 mm 6 mps 744 mmHg 69%
    02:00 +14°C° 0 mm 6 mps 744 mmHg 66%
    03:00 +13°C° 0 mm 6 mps 744 mmHg 63%
    04:00 +12°C° 0 mm 7 mps 745 mmHg 60%
    05:00 +12°C° 0 mm 7 mps 745 mmHg 61%
    06:00 +12°C° 0 mm 7 mps 745 mmHg 62%
    07:00 +12°C° 0 mm 7 mps 746 mmHg 63%
    08:00 +14°C° 0 mm 7 mps 746 mmHg 58%
    09:00 +16°C° 0 mm 7 mps 746 mmHg 53%
    10:00 +17°C° 0 mm 7 mps 746 mmHg 48%
    11:00 +17°C° 0 mm 7 mps 746 mmHg 48%
    12:00 +17°C° 0 mm 6 mps 746 mmHg 49%
    13:00 +19°C° 0 mm 6 mps 746 mmHg 49%
    14:00 +17°C° 0 mm 6 mps 746 mmHg 51%
    15:00 +17°C° 0 mm 6 mps 745 mmHg 53%
    16:00 +17°C° 0 mm 6 mps 745 mmHg 56%
    17:00 +16°C° 0.1 mm 5 mps 746 mmHg 60%
    18:00 +15°C° 0.1 mm 4 mps 746 mmHg 64%
    19:00 +14°C° 0.1 mm 3 mps 746 mmHg 68%
    20:00 +13°C° 0 mm 3 mps 746 mmHg 71%
    21:00 +12°C° 0 mm 3 mps 747 mmHg 73%
    22:00 +11°C° 0 mm 3 mps 747 mmHg 75%
    23:00 +11°C° 0 mm 3 mps 747 mmHg 76%

    23 June, Saturday

    Time Temperature Precipitation Wind Pressure Humidity
    00:00 +11°C° 0 mm 3 mps 747 mmHg 77%
    01:00 +11°C° 0 mm 3 mps 747 mmHg 78%
    02:00 +10°C° 0 mm 3 mps 747 mmHg 80%
    03:00 +10°C° 0 mm 3 mps 747 mmHg 81%
    04:00 +10°C° 0 mm 3 mps 747 mmHg 83%
    05:00 +11°C° 0 mm 3 mps 747 mmHg 79%
    06:00 +13°C° 0 mm 4 mps 747 mmHg 74%
    07:00 +14°C° 0 mm 4 mps 747 mmHg 70%
    08:00 +15°C° 0.1 mm 5 mps 747 mmHg 66%
    09:00 +16°C° 0.1 mm 5 mps 747 mmHg 62%
    10:00 +17°C° 0.1 mm 5 mps 747 mmHg 57%
    11:00 +19°C° 0 mm 5 mps 746 mmHg 55%
    12:00 +20°C° 0 mm 5 mps 746 mmHg 52%
    13:00 +20°C° 0 mm 5 mps 746 mmHg 50%
    14:00 +20°C° 0 mm 5 mps 746 mmHg 50%
    15:00 +20°C° 0 mm 5 mps 746 mmHg 50%
    16:00 +20°C° 0 mm 5 mps 745 mmHg 50%
    17:00 +19°C° 0 mm 4 mps 746 mmHg 56%
    18:00 +18°C° 0 mm 3 mps 746 mmHg 61%
    19:00 +17°C° 0 mm 2 mps 746 mmHg 66%
    20:00 +16°C° 0 mm 2 mps 746 mmHg 69%
    21:00 +14°C° 0 mm 2 mps 746 mmHg 72%
    22:00 +13°C° 0 mm 2 mps 747 mmHg 75%
    23:00 +13°C° 0 mm 2 mps 747 mmHg 77%

    24 June, Sunday

    Time Temperature Precipitation Wind Pressure Humidity
    00:00 +12°C° 0 mm 2 mps 747 mmHg 78%
    01:00 +12°C° 0 mm 2 mps 747 mmHg 80%
    02:00 +12°C° 0 mm 2 mps 747 mmHg 82%
    03:00 +12°C° 0 mm 2 mps 747 mmHg 83%
    04:00 +12°C° 0 mm 2 mps 747 mmHg 85%
    05:00 +12°C° 0.1 mm 2 mps 747 mmHg 84%
    06:00 +12°C° 0.1 mm 3 mps 747 mmHg 83%
    07:00 +13°C° 0.1 mm 3 mps 747 mmHg 82%
    08:00 +14°C° 0.1 mm 3 mps 747 mmHg 76%
    09:00 +16°C° 0.1 mm 3 mps 747 mmHg 71%
    10:00 +17°C° 0.1 mm 3 mps 747 mmHg 66%
    11:00 +18°C° 0.1 mm 3 mps 747 mmHg 63%
    12:00 +19°C° 0.1 mm 3 mps 747 mmHg 60%
    13:00 +19°C° 0.1 mm 4 mps 747 mmHg 57%
    14:00 +20°C° 0 mm 3 mps 747 mmHg 56%
    15:00 +20°C° 0 mm 3 mps 747 mmHg 55%
    16:00 +21°C° 0 mm 3 mps 746 mmHg 54%
    17:00 +20°C° 0 mm 3 mps 747 mmHg 60%
    18:00 +19°C° 0 mm 2 mps 747 mmHg 66%
    19:00 +18°C° 0 mm 2 mps 747 mmHg 71%
    20:00 +16°C° 0 mm 2 mps 747 mmHg 75%
    21:00 +15°C° 0 mm 2 mps 748 mmHg 78%
    22:00 +14°C° 0 mm 2 mps 748 mmHg 81%
    23:00 +13°C° 0 mm 2 mps 748 mmHg 83%

    25 June, Monday

    Time Temperature Precipitation Wind Pressure Humidity
    00:00 +13°C° 0 mm 2 mps 748 mmHg 85%
    01:00 +12°C° 0 mm 2 mps 748 mmHg 86%
    02:00 +12°C° 0 mm 2 mps 748 mmHg 87%
    03:00 +12°C° 0 mm 2 mps 748 mmHg 88%
    04:00 +10°C° 0 mm 2 mps 748 mmHg 89%
    05:00 +13°C° 0 mm 2 mps 748 mmHg 84%
    06:00 +13°C° 0 mm 3 mps 748 mmHg 78%
    07:00 +16°C° 0 mm 3 mps 748 mmHg 73%
    08:00 +18°C° 0 mm 3 mps 748 mmHg 67%
    09:00 +19°C° 0 mm 3 mps 748 mmHg 61%
    10:00 +21°C° 0 mm 3 mps 748 mmHg 55%
    11:00 +22°C° 0 mm 3 mps 748 mmHg 53%
    12:00 +24°C° 0 mm 3 mps 748 mmHg 50%
    13:00 +25°C° 0 mm 3 mps 748 mmHg 47%
    14:00 +25°C° 0 mm 3 mps 748 mmHg 48%
    15:00 +25°C° 0 mm 3 mps 748 mmHg 50%
    16:00 +25°C° 0 mm 3 mps 748 mmHg 51%
    17:00 +22°C° 0.1 mm 3 mps 748 mmHg 59%
    18:00 +21°C° 0.1 mm 3 mps 748 mmHg 66%
    19:00 +20°C° 0.1 mm 2 mps 748 mmHg 74%
    20:00 +18°C° 0 mm 2 mps 748 mmHg 78%
    21:00 +17°C° 0 mm 2 mps 749 mmHg 81%
    22:00 +16°C° 0 mm 2 mps 749 mmHg 85%
    23:00 +15°C° 0 mm 2 mps 749 mmHg 86%
    Show more